Lapse_Rate
6.1 6.2 6.3 6.1 5.8 5.9 5.9 6.0 6.1 6.1 6.2 6.1 5.6 5.8 6.1 6.1 6.1 6.1 6.6 6.8 6.4 6.5 7.0 6.9 6.5 6.4 6.5 6.3 6.1 6.1 5.6 5.3 5.6 6.1 6.6 6.8 6.5 6.1 6.0 6.2 6.1 6.0 6.1 6.4 6.4
6.0 6.1 5.8 5.2 4.2 4.0 4.1 4.2 4.8 6.0 6.2 6.1 5.7 5.6 6.2 6.2 6.3 6.6 6.7 6.5 6.4 6.5 6.7 7.1 6.7 6.4 6.3 6.2 6.0 5.9 5.4 5.7 6.1 6.6 6.9 6.6 6.2 6.2 6.1 6.2 6.2 6.1 6.4 6.5 6.5
5.6 5.4 4.9 4.2 4.0 4.4 4.7 4.5 4.6 4.7 6.2 6.2 5.8 5.5 6.0 6.1 6.2 7.0 6.6 6.8 6.5 6.5 6.3 6.8 6.3 6.2 6.2 6.1 5.8 5.8 5.4 5.8 6.4 6.8 6.8 6.5 6.3 6.1 6.3 6.3 6.5 6.3 6.3 6.6 6.5
5.0 4.7 4.2 4.1 4.8 4.9 5.6 6.3 6.0 5.6 5.8 6.3 5.8 5.5 6.0 6.3 6.2 6.6 7.0 7.0 6.8 6.6 6.4 6.4 6.1 5.8 5.8 5.7 5.6 5.6 5.6 5.9 6.7 6.7 6.4 6.2 6.1 5.8 6.1 6.8 6.4 6.3 6.1 6.2 6.4
4.6 4.3 4.3 5.1 5.6 6.2 6.5 6.6 6.8 6.3 5.8 5.6 6.1 6.0 6.5 6.6 6.4 6.4 6.9 7.0 7.1 6.8 6.6 6.2 6.3 5.9 5.9 6.0 5.9 5.7 5.5 6.1 6.8 6.6 6.2 6.0 6.0 6.0 6.4 6.7 6.4 6.4 6.3 6.0 6.2
3.6 3.8 5.4 6.0 6.7 6.8 7.2 7.3 7.3 7.2 6.3 5.7 6.0 6.4 6.7 6.2 6.4 6.3 6.9 7.0 7.2 7.1 6.7 6.1 6.3 6.0 5.9 6.1 6.1 5.7 5.7 6.3 6.7 6.4 6.3 5.9 6.2 5.7 6.7 6.8 6.7 6.6 6.3 6.0 5.9
3.6 5.0 6.1 6.9 7.3 7.1 7.5 7.4 7.3 7.3 6.9 6.1 6.0 6.3 6.9 6.3 6.5 6.6 6.7 6.9 6.9 7.2 7.0 6.4 6.0 5.9 5.8 5.7 5.9 5.3 5.6 6.0 6.3 6.3 6.1 6.0 6.2 6.1 6.9 6.7 6.8 6.8 6.7 6.0 5.7
4.3 5.8 6.5 7.0 7.3 7.3 7.7 7.7 7.5 7.3 6.9 6.4 6.4 6.7 6.4 6.4 6.2 6.6 6.9 6.6 6.7 6.7 6.7 6.3 6.2 5.7 5.5 5.5 5.4 5.2 5.1 5.4 6.1 6.3 6.0 5.9 6.0 5.9 6.4 6.7 6.9 6.7 6.5 6.3 5.8
4.9 6.3 6.9 7.2 7.4 7.5 7.7 7.8 7.8 7.6 7.0 6.3 6.3 6.4 6.0 6.3 6.5 6.4 6.8 6.8 6.5 6.6 6.4 6.3 6.2 5.6 5.4 5.3 5.1 4.9 4.8 5.0 5.7 6.1 6.0 5.8 5.4 6.1 6.0 6.4 6.4 6.7 6.7 6.4 6.4
5.5 7.0 7.1 7.6 7.7 7.8 7.8 7.6 7.6 7.6 6.9 6.3 6.3 6.4 6.6 6.7 6.2 6.3 6.6 6.6 6.5 6.3 6.2 6.1 6.0 5.7 5.2 4.9 4.7 4.7 4.6 5.4 5.8 5.9 5.8 5.5 4.4 6.0 6.4 6.3 6.3 6.5 7.0 7.0 6.9
6.4 7.1 7.6 8.0 8.0 7.7 7.7 7.8 7.6 7.5 6.8 6.4 6.4 6.5 6.5 6.6 6.4 6.3 6.5 6.5 6.8 6.4 6.1 6.0 6.1 5.5 5.6 5.2 5.4 5.5 5.4 5.3 5.5 5.4 5.1 5.3 4.9 5.8 6.6 6.4 6.6 6.6 6.8 6.7 6.8
7.0 7.4 7.8 8.0 7.8 7.7 7.6 7.5 7.4 7.4 6.7 6.4 6.4 6.7 6.6 6.6 6.6 6.0 6.1 6.3 6.5 6.1 6.1 5.9 6.1 6.0 5.9 5.6 5.4 5.3 5.2 5.3 5.4 5.3 5.0 5.2 5.1 5.7 6.7 6.4 6.3 6.2 6.4 6.7 6.7
7.2 7.4 7.5 7.9 7.8 7.6 7.5 7.4 7.3 7.3 6.5 6.2 6.7 6.9 6.8 6.6 6.6 6.6 6.0 6.3 6.5 6.3 6.4 6.1 6.2 6.0 5.9 5.7 5.5 5.3 5.3 5.4 5.5 5.2 4.9 4.9 5.1 6.2 6.7 6.5 6.4 6.6 6.6 6.4 6.4
7.1 7.4 7.2 7.4 7.5 7.6 7.5 7.7 7.3 7.0 6.6 6.5 6.9 7.0 6.9 6.6 6.4 6.3 6.4 6.4 6.4 6.4 6.8 6.9 6.6 6.2 6.0 6.0 5.6 5.4 5.3 5.3 5.4 5.0 4.6 4.8 3.9 6.4 6.8 6.6 6.6 6.7 6.4 5.9 6.1
6.1 7.3 7.3 7.4 7.5 7.3 7.4 7.6 7.4 6.9 4.7 6.8 6.4 6.8 6.7 6.4 6.3 6.3 6.2 6.7 6.4 6.5 6.3 5.9 6.2 6.0 6.1 6.1 5.7 5.4 5.3 5.4 5.2 4.9 4.3 4.7 4.2 6.8 6.7 6.5 6.2 6.3 6.3 6.1 5.9
6.0 6.4 7.1 7.1 7.3 7.3 7.4 7.2 6.9 6.6 5.7 6.7 6.3 6.6 6.4 6.2 6.1 6.3 6.2 6.4 6.6 6.6 6.3 6.5 6.3 6.3 6.0 5.8 5.6 5.7 5.8 5.5 5.2 4.8 3.4 4.2 4.5 7.0 6.4 6.1 6.1 6.2 6.2 6.1 6.0
5.9 6.3 6.9 6.8 7.1 7.0 7.1 7.0 6.6 6.3 6.7 6.7 6.2 6.4 6.2 6.0 6.3 6.2 6.2 6.4 6.4 6.1 6.1 6.0 5.9 5.9 5.8 5.6 5.4 5.4 5.7 5.2 4.0 3.3 3.3 4.6 4.5 6.8 6.2 6.1 6.3 6.2 6.1 6.0 5.9
5.6 5.8 6.2 6.7 7.3 7.4 6.9 6.7 6.5 6.4 6.3 6.4 6.5 6.4 6.3 6.3 6.3 6.2 6.3 6.4 6.3 6.5 6.5 6.4 6.0 5.7 5.5 5.6 5.8 5.2 5.4 5.1 4.2 3.6 3.9 4.4 4.5 6.4 6.3 6.3 6.2 6.2 6.1 6.0 6.0
6.0 5.6 6.2 7.1 7.1 7.2 6.9 6.4 5.9 6.5 6.5 6.5 6.5 6.4 6.1 6.0 5.9 6.3 6.3 6.5 6.6 6.8 6.9 6.3 5.8 5.6 5.6 5.4 5.3 5.1 5.0 5.2 5.0 4.0 3.4 5.0 6.1 6.3 6.5 6.4 6.0 5.6 5.5 5.6 5.6
6.2 6.2 6.1 6.2 5.9 6.3 6.6 6.4 6.5 6.7 6.5 6.5 6.4 6.4 6.0 6.2 6.3 6.0 6.3 6.5 6.6 6.6 6.5 6.4 6.0 5.7 5.6 5.2 5.1 5.2 5.3 4.9 5.1 3.6 4.1 4.9 5.4 6.5 6.4 6.1 5.8 5.6 5.7 5.5 5.1
6.5 6.5 6.0 6.0 6.3 5.9 6.3 6.6 6.4 7.0 6.8 6.8 6.8 6.4 6.3 6.0 6.3 6.3 6.6 6.3 6.4 6.4 6.7 6.5 6.1 5.4 5.3 5.0 5.2 5.1 5.0 5.2 5.2 4.7 4.0 4.3 6.2 6.4 6.2 5.8 5.2 5.1 5.3 5.3 5.3
6.5 6.4 6.2 6.1 6.6 6.3 6.0 6.5 6.2 6.3 6.4 6.6 6.6 6.8 6.6 6.6 6.5 6.5 6.6 6.3 6.2 6.4 6.4 6.1 5.9 5.4 5.3 5.1 5.0 5.0 5.2 5.2 5.4 4.1 4.0 4.1 6.0 6.3 5.9 5.3 4.8 5.2 5.4 5.1 5.3
6.4 6.4 6.2 6.2 6.2 5.9 5.9 6.0 6.2 6.5 6.8 7.1 6.9 6.8 6.7 6.5 6.3 6.3 6.4 6.4 6.3 6.2 6.1 6.0 5.7 5.3 5.1 5.1 5.0 4.9 4.7 4.9 4.9 4.7 4.5 4.1 5.9 6.1 5.5 5.2 5.2 4.9 5.0 4.7 4.6
6.6 6.4 6.1 5.9 5.6 5.8 5.7 5.8 6.1 6.2 6.6 6.8 6.6 6.4 6.5 6.3 6.3 6.2 6.2 6.4 6.1 5.8 5.8 5.8 5.7 5.7 5.1 5.5 5.3 5.0 5.1 4.9 4.7 4.5 4.6 5.3 6.3 5.9 5.4 5.3 5.2 4.9 4.5 4.5 4.7
6.5 6.4 6.5 5.8 5.7 5.7 5.8 5.7 6.1 6.2 6.3 6.3 6.2 6.3 6.3 6.3 6.4 6.3 6.2 6.1 5.8 5.7 5.6 5.4 5.5 5.5 5.4 5.3 5.3 5.2 5.1 4.9 4.7 4.8 5.0 5.8 5.7 5.9 5.3 5.1 4.9 4.7 4.6 4.5 4.2
6.4 6.3 6.2 6.0 5.8 5.6 5.6 5.6 5.8 5.9 5.9 6.0 6.1 6.0 6.2 6.3 6.3 6.5 6.2 5.8 5.6 5.4 5.4 5.2 5.3 5.3 5.4 5.4 5.3 5.2 5.1 4.9 5.0 5.0 5.0 5.6 5.8 5.6 5.3 5.1 4.9 4.7 4.6 4.4 4.3
5.8 6.3 6.2 6.2 6.1 5.9 5.7 5.7 5.7 5.6 5.5 5.6 5.7 5.8 6.0 6.1 6.2 5.9 5.7 5.6 5.6 5.5 5.1 5.0 5.0 5.2 5.3 5.1 5.2 5.4 5.9 5.8 5.9 6.1 5.9 5.6 6.2 5.7 5.2 5.4 5.1 4.9 4.8 4.7 4.6
Wind_Speed
23 23 24 24 21 21 22 18 17 15 20 23 23 23 28 15 10 5 13 8 13 21 10 6 7 4 2 2 3 3 3 5 6 7 4 1 2 2 1 2 4 3 1 6 8
23 22 23 23 23 22 19 16 16 17 15 21 22 24 25 17 5 13 11 19 21 14 9 11 10 7 3 4 3 4 4 9 5 5 4 2 2 2 3 6 3 2 6 8 8
23 25 23 21 22 23 20 20 17 15 17 18 21 22 22 15 1 7 22 32 23 20 8 6 8 7 5 3 4 5 5 4 4 3 1 3 3 1 1 3 4 2 4 5 3
23 23 23 23 23 21 21 18 16 18 16 18 18 18 20 5 7 2 6 19 29 18 9 7 9 9 6 6 5 3 5 5 3 3 1 2 0 2 5 6 4 3 0 3 1
22 22 22 22 22 21 18 18 16 16 18 17 18 15 8 3 8 5 8 12 23 15 17 6 9 5 7 7 5 4 2 5 5 5 3 1 5 6 6 8 7 6 4 4 3
25 20 21 20 19 19 18 17 15 15 17 17 13 13 7 8 4 13 8 3 15 16 14 9 7 4 5 5 6 6 6 5 4 4 3 4 5 5 4 4 6 5 10 7 6
24 22 20 19 17 18 18 16 14 15 16 15 13 6 7 11 3 7 5 9 13 15 11 7 6 5 5 4 6 4 3 2 5 4 5 4 7 7 8 8 11 11 8 9 9
21 21 18 19 18 18 15 16 15 15 15 14 12 4 6 5 13 10 6 3 6 5 8 8 7 4 3 4 4 6 3 2 3 6 5 7 5 8 8 7 11 10 9 9 12
22 21 20 19 18 16 16 17 20 18 16 12 5 3 5 5 1 8 6 4 8 4 4 11 7 5 3 6 4 1 4 4 5 5 2 8 3 3 4 2 9 10 9 7 8
22 18 19 19 17 15 15 17 19 9 3 3 3 1 5 5 6 3 3 5 5 7 9 8 6 5 4 4 8 6 3 2 4 1 1 4 7 9 8 6 8 9 10 10 8
23 18 19 19 15 15 5 4 4 3 2 6 3 5 4 1 4 1 3 3 5 4 8 13 8 13 17 7 5 5 4 4 2 2 3 6 5 12 12 6 9 10 11 13 14
26 23 19 16 16 14 3 1 3 1 5 6 10 9 12 4 4 5 5 4 4 6 6 1 6 4 11 7 6 5 5 2 2 1 2 6 10 15 14 8 11 13 13 13 9
28 24 18 14 13 4 3 4 1 2 3 3 1 3 3 2 8 8 9 2 3 5 5 5 5 12 5 6 8 3 3 3 3 3 2 7 6 5 4 3 5 7 6 6 8
27 28 18 8 4 3 2 2 3 2 4 0 2 3 3 3 3 2 5 4 2 3 4 4 4 12 12 6 3 3 4 3 4 3 3 4 5 7 5 9 4 6 7 7 8
28 18 2 3 0 2 2 2 3 3 5 4 2 3 3 3 12 4 2 0 5 5 3 1 8 10 4 6 9 3 5 5 3 4 2 3 3 8 4 5 6 8 10 8 7
24 20 7 5 2 1 8 4 3 5 1 3 3 4 7 12 3 4 1 2 4 5 8 4 3 2 3 5 2 10 5 6 4 2 1 2 3 6 2 2 5 5 7 9 9
22 19 6 2 2 6 5 3 4 5 2 2 3 3 7 10 7 3 3 4 4 4 4 4 3 2 4 7 5 3 4 2 4 3 3 1 1 7 4 4 1 3 6 8 8
12 15 10 6 3 4 1 3 7 2 3 6 4 7 7 6 7 3 4 4 5 5 3 4 1 1 1 3 6 3 4 4 4 1 2 1 5 4 4 4 4 2 4 6 8
7 4 3 4 9 3 2 5 1 2 5 2 7 7 5 6 5 3 3 4 3 3 4 4 3 1 3 2 3 3 2 2 6 2 2 3 6 5 4 2 2 7 7 9 9
2 2 3 5 4 2 3 3 1 2 4 3 4 4 4 2 4 4 2 2 3 2 1 2 4 1 2 3 7 3 7 3 3 1 2 4 5 3 3 4 8 13 14 10 6
3 3 3 10 3 3 2 3 2 5 5 2 3 5 4 4 4 2 4 2 2 1 5 3 3 1 4 1 6 2 1 5 4 2 2 2 4 5 5 3 6 9 9 9 8
1 3 2 3 4 2 2 3 1 3 2 3 4 5 3 3 3 3 5 2 5 5 4 2 3 3 1 1 1 2 5 4 4 3 2 1 6 2 4 2 4 8 8 7 8
1 2 3 3 3 4 6 3 1 4 4 3 3 3 2 4 4 3 4 2 6 3 6 5 1 3 2 0 3 3 4 4 4 3 5 4 5 1 6 8 10 8 7 6 7
2 3 4 3 0 1 4 5 5 2 3 4 4 4 4 4 5 3 2 4 5 3 8 6 3 4 5 4 3 2 4 5 5 3 3 5 7 12 12 10 13 9 4 7 9
3 1 1 3 2 5 2 3 3 4 3 5 4 3 4 3 2 3 3 2 5 6 4 3 2 2 3 3 3 3 4 8 7 6 6 4 7 12 14 14 14 8 6 9 10
2 2 1 2 5 4 5 4 2 2 4 3 6 5 4 4 3 6 6 3 3 3 3 1 2 2 3 2 6 4 7 8 9 5 9 13 19 20 17 9 7 4 7 10 10
2 2 2 2 4 1 2 4 2 3 4 6 3 4 8 4 1 3 1 5 6 6 3 3 4 2 3 3 4 5 9 12 6 6 8 7 12 8 8 9 6 4 6 8 9
Wind_Direction
325 321 317 311 304 305 303 296 294 297 300 302 307 310 316 242 247 242 236 229 213 243 289 204 202 174 98 178 131 132 114 189 202 159 217 191 140 333 303 283 322 220 345 298 132
319 318 319 319 312 303 303 297 298 298 294 301 304 305 307 302 217 245 230 225 231 234 228 180 179 140 168 189 179 153 166 205 196 180 193 142 128 297 6 353 310 351 6 33 143
321 319 317 314 310 307 305 296 293 289 287 292 297 303 303 312 214 249 232 222 220 215 203 162 149 147 169 164 188 169 197 189 243 190 131 134 328 231 58 303 217 317 328 36 44
321 319 314 314 311 312 306 295 297 294 290 291 292 302 311 207 211 209 208 213 208 198 179 146 150 158 157 189 182 158 209 180 248 222 206 183 146 285 205 230 175 188 105 354 17
324 321 322 317 316 313 308 292 286 288 286 293 296 298 314 207 251 285 313 319 189 190 191 155 163 141 166 167 125 180 200 204 262 289 239 214 231 224 244 258 268 281 279 257 282
324 332 319 320 321 318 310 300 296 292 289 293 291 303 274 225 219 323 288 211 182 178 181 168 166 154 148 194 167 190 200 235 255 239 251 222 242 170 260 249 261 253 265 253 243
324 330 324 323 322 321 318 314 307 293 291 295 295 292 265 226 165 336 287 177 190 178 162 162 162 147 134 131 181 146 109 272 239 200 232 175 262 231 232 254 257 259 230 265 247
326 320 323 318 318 319 320 321 311 302 294 289 285 264 251 236 261 306 303 146 146 145 164 143 130 122 171 125 64 123 104 185 284 169 232 137 249 278 240 230 266 266 253 234 256
322 320 320 320 318 318 323 318 303 296 286 272 286 187 258 130 126 253 225 179 138 107 179 176 125 159 128 125 87 164 176 182 313 196 169 190 290 263 0 247 263 276 286 259 254
326 319 315 316 314 313 324 318 298 307 289 212 243 254 236 204 160 211 162 164 126 123 150 164 188 149 123 169 189 155 179 181 205 255 135 270 280 282 281 276 248 277 280 280 265
324 319 317 312 308 313 342 345 14 357 65 199 177 238 109 29 64 121 145 129 102 190 186 175 176 190 185 167 149 131 137 159 228 320 302 260 268 284 281 260 264 257 267 270 268
321 315 313 310 309 317 98 242 205 169 305 252 261 267 282 313 113 262 144 154 150 177 114 111 172 108 145 152 116 125 130 185 285 20 339 313 292 264 266 248 236 246 253 262 286
315 302 293 295 306 7 170 218 24 130 269 355 81 297 208 23 152 178 159 205 122 157 140 138 127 133 120 157 166 125 132 194 198 348 55 320 285 307 301 310 294 278 277 293 292
327 316 274 284 324 146 240 216 295 161 68 64 281 220 170 140 72 168 179 169 89 136 111 90 120 144 165 178 116 129 205 145 92 67 269 7 291 298 315 321 347 12 10 317 318
351 353 25 126 171 294 53 95 153 96 77 207 156 348 298 239 147 173 1 72 124 117 80 251 139 136 169 163 168 155 117 114 95 89 25 350 90 269 2 8 6 5 359 355 323
6 20 78 85 78 274 112 99 48 35 86 207 140 208 146 130 81 93 97 87 113 78 71 44 40 86 133 60 104 143 90 61 56 89 24 273 154 290 39 31 333 339 356 6 8
15 32 41 69 108 152 143 51 38 76 328 173 99 151 108 116 108 118 157 66 99 99 54 46 32 49 97 82 33 88 86 334 351 21 217 266 147 251 311 302 270 297 331 346 352
3 15 29 37 72 104 25 64 53 1 260 75 123 103 111 97 106 78 111 87 35 88 111 134 144 135 28 124 160 61 129 154 227 193 265 43 233 247 209 297 136 31 314 332 353
348 349 6 335 341 350 32 52 234 333 313 148 87 73 67 39 93 112 61 98 120 39 117 118 23 24 39 111 113 180 80 141 102 14 45 241 285 330 77 123 346 350 341 342 335
76 43 279 321 339 11 60 56 310 245 295 41 58 46 92 52 95 105 84 62 96 34 202 172 88 75 101 85 32 121 147 80 2 127 280 283 287 239 253 5 3 344 345 328 313
39 35 258 335 84 44 30 0 318 269 243 59 138 100 104 119 108 83 136 13 88 109 66 114 90 18 122 220 170 115 92 48 106 85 154 313 269 216 211 109 340 317 303 302 315
60 22 308 37 27 7 32 341 273 291 258 81 93 84 107 118 93 114 153 87 172 150 94 62 111 126 87 94 342 117 161 138 121 223 66 110 274 300 251 258 278 286 295 312 328
5 259 317 83 45 339 327 321 318 5 13 46 100 72 95 110 102 94 122 103 155 129 155 169 53 70 7 338 17 189 167 125 111 91 202 154 260 182 295 301 311 304 308 322 320
39 16 331 34 166 334 344 342 358 11 345 59 88 70 90 55 25 117 101 15 168 132 92 89 111 149 184 205 144 165 161 168 130 120 203 234 293 298 299 302 307 317 324 330 335
33 31 14 338 335 332 273 307 28 14 358 26 57 88 128 101 71 98 92 100 47 114 68 95 124 109 258 227 141 200 183 180 187 187 177 241 226 270 287 292 300 305 348 337 342
19 14 319 288 301 336 325 358 40 20 10 15 97 54 78 121 164 187 135 153 158 50 103 8 149 101 306 286 201 238 224 199 216 228 260 261 282 275 279 291 288 356 343 346 336
318 318 297 305 332 26 310 320 27 155 62 63 92 80 51 344 246 140 71 99 140 137 125 99 129 81 279 327 305 279 223 199 183 209 211 222 241 290 293 305 326 334 358 333 334